Meteo Giornale » Osservazioni meteo Francia » Villacoublay

ore: 09:00 - Osservazioni Meteo Villacoublay
Lat. 48° 46' N Lon. 2° 12' E Alt. 177 metri s.l.m.

coperto Europe/Paris

13 °C

Coperto

Temp. 24 Ore

11 °C

15 °C

Sud/Sud-Ovest

24 Km/h

Dew point 12 °C

Umidità 93 %

Visibilità  10 Km

Il sole sorge alle ore 08:11

Il sole tramonta alle ore 19:01

Data e Ora Cielo e Fenomeni T °C DP °C Um. % Pres. hPa Vis. km Vento km/h
Oggi h: 09:00 coperto Coperto 13 12 93 1009 10 S/SO 24
Oggi h: 08:30 coperto Coperto 13 12 93 1009 10 S/SO 24
Oggi h: 08:00 coperto Coperto 13 12 93 1009 10 S/SO 22.2
Oggi h: 07:30 coperto Coperto 13 12 93 1009 10 S/SO 20.3
Oggi h: 06:30 coperto_pioggia Pioviggine Leggera 12 12 100 1009 10 S 20.3
Oggi h: 06:00 coperto_pioggia Pioggia Debole 12 11 93 1010 10 S 22.2
Oggi h: 05:30 coperto_pioggia Pioggia Debole Foschia 12 11 93 1010 5 S 18.5
Oggi h: 05:00 coperto_pioggia Pioggia Debole 12 11 93 1010 10 S 18.5
Oggi h: 04:30 coperto_pioggia Pioggia Debole 12 11 93 1011 10 S 16.7
Oggi h: 04:00 coperto_pioggia Pioggia Debole 11 11 100 1011 10 S 14.8
Oggi h: 03:30 coperto_pioggia Pioggia Debole 11 11 100 1011 10 S 14.8
Oggi h: 03:00 coperto_pioggia Pioggia Debole 11 10 93 1011 10 S 11.1
Oggi h: 02:30 coperto_pioggia Pioggia Debole 11 9 87 1012 10 S 11.1
Oggi h: 02:00 coperto Coperto 11 9 87 1012 10 S/SO 11.1
Oggi h: 01:30 sereno Sereno 11 9 87 1012 10 S/SO 9.3
Oggi h: 01:00 nuvoloso Nuvoloso 11 8 81 1012 10 S/SO 7.4
Oggi h: 00:30 sereno Sereno 11 8 81 1012 10 S/SO 7.4
Oggi h: 00:00 sereno Sereno 11 9 87 1012 10 SO 11.1
Ieri h: 23:00 sereno Sereno 12 9 81 1012 10 SO 13
Ieri h: 22:30 poco_nuvoloso Poco Nuvoloso 12 9 81 1011 10 SO 11.1
Ieri h: 22:00 molto_nuvoloso Molto Nuvoloso 12 10 87 1011 10 O/SO 11.1
Ieri h: 21:30 molto_nuvoloso Molto Nuvoloso 12 10 87 1011 10 SO 14.8
Ieri h: 21:00 coperto Coperto 12 10 87 1011 10 SO 13
Ieri h: 20:30 molto_nuvoloso Molto Nuvoloso 13 9 76 1011 10 O/SO 16.7
Ieri h: 20:00 sereno Sereno 13 9 76 1010 10 O/SO 18.5
Ieri h: 19:30 molto_nuvoloso Molto Nuvoloso 13 9 76 1010 10 O/SO 22.2
Ieri h: 19:00 molto_nuvoloso Molto Nuvoloso 14 8 67 1009 10 SO 16.7
Ieri h: 18:30 molto_nuvoloso Molto Nuvoloso 15 8 62 1009 10 O/SO 22.2
Ieri h: 18:00 molto_nuvoloso Molto Nuvoloso 15 9 67 1008 10 SO 13
Ieri h: 17:30 molto_nuvoloso Molto Nuvoloso 15 9 67 1008 10 SO 16.7
Ieri h: 17:00 coperto Coperto 15 9 67 1008 10 SO 14.8
Ieri h: 16:30 coperto Coperto 15 9 67 1008 10 SO 16.7
Ieri h: 16:00 molto_nuvoloso Molto Nuvoloso 15 9 67 1008 10 SO 18.5
Ieri h: 15:30 molto_nuvoloso Molto Nuvoloso 15 9 67 1008 10 O/SO 14.8
Ieri h: 15:00 molto_nuvoloso Molto Nuvoloso 14 9 71 1008 0.6 SO 16.7
Ieri h: 14:30 coperto Coperto 14 9 71 1008 10 O/SO 16.7
Ieri h: 14:00 molto_nuvoloso Molto Nuvoloso 15 9 67 1008 10 O/SO 18.5
Ieri h: 13:30 molto_nuvoloso Molto Nuvoloso 15 11 76 1008 10 O/SO 16.7
Ieri h: 13:00 coperto Coperto 14 10 76 1008 10 O/SO 16.7
Ieri h: 12:30 coperto Coperto 14 10 76 1008 10 O/SO 18.5
Ieri h: 12:00 coperto Coperto 13 11 87 1008 10 O/SO 13
Ieri h: 11:30 molto_nuvoloso Molto Nuvoloso 13 11 87 1008 10 O/SO 16.7
Ieri h: 11:00 nuvoloso Nuvoloso 13 11 87 1008 10 O/SO 14.8
Ieri h: 10:30 molto_nuvoloso Molto Nuvoloso 12 11 93 1008 10 O/SO 14.8
Ieri h: 10:00 coperto Coperto 12 11 93 1007 10 O 13